FW2584 Weather Reports


Display with metric or nautical units.
time (UTC)temp
F
wind
direction
speed
MPH
gust
MPH
rain 1hr
in
rain 24hr
in
rain mn
in
humidity
%
barometer
mb
20260903201542 96 196 0.0 4.0 0.00 0.00 0.00 60 1015.4
20260903201020 96 0 0.0 4.0 0.00 0.00 0.00 61 1015.4
20260903200524 96 0 0.0 4.0 0.00 0.00 0.00 61 1015.4
20260903200048 96 0 0.0 2.0 0.00 0.00 0.00 61 1015.5
20260903195524 96 221 0.0 2.0 0.00 0.00 0.00 60 1015.7
20260903195023 96 0 0.0 4.0 0.00 0.00 0.00 59 1015.7
20260903194543 97 0 0.0 4.0 0.00 0.00 0.00 60 1015.8
20260903194023 97 0 0.0 4.0 0.00 0.00 0.00 59 1015.8
20260903193524 97 0 0.0 1.0 0.00 0.00 0.00 60 1015.8
20260903193048 97 0 0.0 3.0 0.00 0.00 0.00 64 1015.9
20260903192523 97 0 0.0 3.0 0.00 0.00 0.00 59 1015.9
20260903192024 97 221 0.0 3.0 0.00 0.00 0.00 60 1015.9
20260903191542 97 0 0.0 1.0 0.00 0.00 0.00 61 1016.0
20260903191021 97 0 0.0 1.0 0.00 0.00 0.00 60 1016.1
20260903190521 97 0 0.0 1.0 0.00 0.00 0.00 59 1016.1
20260903190043 97 215 0.0 1.0 0.00 0.00 0.00 60 1016.2
20260903185523 97 0 0.0 4.0 0.00 0.00 0.00 59 1016.4
20260903185027 97 0 0.0 4.0 0.00 0.00 0.00 60 1016.4
20260903184541 96 0 0.0 5.0 0.00 0.00 0.00 62 1016.4
20260903184027 96 0 0.0 5.0 0.00 0.00 0.00 61 1016.5
20260903183525 95 0 0.0 5.0 0.00 0.00 0.00 65 1016.5
20260903183044 95 0 0.0 3.0 0.00 0.00 0.00 62 1016.6
20260903182524 96 0 0.0 3.0 0.00 0.00 0.00 62 1016.8
20260903182024 96 0 0.0 4.0 0.00 0.00 0.00 63 1016.7
20260903181542 96 0 1.0 4.0 0.00 0.00 0.00 62 1016.7
20260903181024 96 0 0.0 1.0 0.00 0.00 0.00 61 1016.8
20260903180524 95 0 0.0 1.0 0.00 0.00 0.00 61 1016.8
20260903180106 95 0 0.0 3.0 0.00 0.00 0.00 61 1016.9
20260903175525 95 0 0.0 3.0 0.00 0.00 0.00 61 1016.9
20260903175025 95 186 0.0 3.0 0.00 0.00 0.00 61 1017.0
20260903174540 94 0 0.0 1.0 0.00 0.00 0.00 65 1017.0
20260903174021 94 0 0.0 1.0 0.00 0.00 0.00 62 1017.0
20260903173521 95 0 0.0 1.0 0.00 0.00 0.00 61 1017.1
20260903173043 95 0 0.0 3.0 0.00 0.00 0.00 63 1017.0
20260903172527 95 0 1.0 3.0 0.00 0.00 0.00 60 1017.1
20260903172024 95 0 0.0 3.0 0.00 0.00 0.00 62 1017.1
20260903171549 95 202 0.0 4.0 0.00 0.00 0.00 65 1017.1
20260903171024 95 0 0.0 4.0 0.00 0.00 0.00 63 1017.2
20260903170528 95 0 0.0 4.0 0.00 0.00 0.00 64 1017.1
20260903170041 95 0 0.0 1.0 0.00 0.00 0.00 64 1017.3
20260903165525 95 0 0.0 1.0 0.00 0.00 0.00 66 1017.3
20260903165024 95 0 0.0 1.0 0.00 0.00 0.00 65 1017.4
20260903164558 94 0 0.0 3.0 0.00 0.00 0.00 66 1017.5
20260903164027 94 0 0.0 3.0 0.00 0.00 0.00 67 1017.5
20260903163523 94 0 0.0 1.0 0.00 0.00 0.00 63 1017.6
20260903163046 95 0 0.0 0.0 0.00 0.00 0.00 63 1017.7
20260903162523 94 0 0.0 1.0 0.00 0.00 0.00 65 1017.6
20260903162023 94 0 0.0 1.0 0.00 0.00 0.00 66 1017.6
20260903161543 93 0 0.0 3.0 0.00 0.00 0.00 65 1017.7
20260903161023 93 0 0.0 3.0 0.00 0.00 0.00 66 1017.7
20260903160526 93 0 0.0 4.0 0.00 0.00 0.00 66 1017.9
20260903160048 93 0 1.0 4.0 0.00 0.00 0.00 65 1017.9
20260903155525 93 0 0.0 1.0 0.00 0.00 0.00 65 1018.0
20260903155025 93 0 0.0 1.0 0.00 0.00 0.00 69 1017.9
20260903154542 93 0 0.0 1.0 0.00 0.00 0.00 67 1018.0
20260903154025 92 0 0.0 1.0 0.00 0.00 0.00 67 1018.0
20260903153526 91 0 0.0 4.0 0.00 0.00 0.00 67 1018.1
20260903153043 91 0 0.0 4.0 0.00 0.00 0.00 67 1018.0
20260903152526 91 0 0.0 1.0 0.00 0.00 0.00 68 1018.1
20260903152024 91 0 0.0 1.0 0.00 0.00 0.00 70 1018.1
20260903151542 91 0 0.0 3.0 0.00 0.00 0.00 70 1018.0
20260903151025 90 0 0.0 3.0 0.00 0.00 0.00 70 1018.1
20260903150523 89 0 0.0 3.0 0.00 0.00 0.00 72 1018.0
20260903150048 88 0 0.0 4.0 0.00 0.00 0.00 72 1018.0
20260903145525 88 0 0.0 4.0 0.00 0.00 0.00 71 1018.0
20260903145024 88 0 0.0 1.0 0.00 0.00 0.00 73 1018.1
20260903144545 87 0 0.0 3.0 0.00 0.00 0.00 73 1018.0
20260903144023 87 0 0.0 3.0 0.00 0.00 0.00 73 1018.0
20260903143523 87 0 0.0 1.0 0.00 0.00 0.00 76 1018.1
20260903143041 86 0 0.0 1.0 0.00 0.00 0.00 75 1018.1
20260903142525 86 0 0.0 1.0 0.00 0.00 0.00 76 1018.0
20260903142024 86 0 0.0 1.0 0.00 0.00 0.00 77 1017.9
20260903141542 86 0 0.0 1.0 0.00 0.00 0.00 77 1018.0
20260903141026 85 0 0.0 1.0 0.00 0.00 0.00 76 1017.9
20260903140524 85 0 0.0 1.0 0.00 0.00 0.00 76 1017.9
20260903140045 84 0 0.0 1.0 0.00 0.00 0.00 77 1018.0
20260903135521 84 0 0.0 1.0 0.00 0.00 0.00 78 1018.0
20260903135025 83 0 0.0 1.0 0.00 0.00 0.00 82 1018.0
20260903134542 83 0 0.0 0.0 0.00 0.00 0.00 84 1018.0
20260903134021 82 0 0.0 2.0 0.00 0.00 0.00 84 1018.0
20260903133525 82 0 0.0 2.0 0.00 0.00 0.00 85 1018.1
20260903133043 81 0 0.0 0.0 0.00 0.00 0.00 87 1018.1
20260903132523 80 0 0.0 0.0 0.00 0.00 0.00 90 1018.3
20260903132024 79 0 0.0 0.0 0.00 0.00 0.00 94 1018.3
20260903131543 79 0 0.0 0.0 0.00 0.00 0.00 95 1018.3
20260903131026 78 0 0.0 0.0 0.00 0.00 0.00 96 1018.3
20260903130524 78 0 0.0 0.0 0.00 0.00 0.00 98 1018.3
20260903130105 77 0 0.0 0.0 0.00 0.00 0.00 99 1018.4
20260903125526 77 0 0.0 0.0 0.00 0.00 0.00 99 1018.4
20260903125024 77 0 0.0 0.0 0.00 0.00 0.00 99 1018.4
20260903124543 76 0 0.0 0.0 0.00 0.00 0.00 99 1018.4
20260903124027 76 0 0.0 0.0 0.00 0.00 0.00 99 1018.4
20260903123524 76 0 0.0 0.0 0.00 0.00 0.00 99 1018.4
20260903123039 76 0 0.0 0.0 0.00 0.00 0.00 99 1018.3
20260903122524 75 0 0.0 0.0 0.00 0.00 0.00 99 1018.3
20260903122025 75 0 0.0 0.0 0.00 0.00 0.00 99 1018.3
20260903121546 75 0 0.0 0.0 0.00 0.00 0.00 99 1018.3
20260903121023 75 0 0.0 0.0 0.00 0.00 0.00 99 1018.3
20260903120523 75 0 0.0 0.0 0.00 0.00 0.00 99 1018.3
20260903120045 75 0 0.0 0.0 0.00 0.00 0.00 99 1018.3
20260903115524 74 0 0.0 0.0 0.00 0.00 0.00 99 1018.3
20260903115025 74 0 0.0 0.0 0.00 0.00 0.00 99 1018.3
20260903114550 74 0 0.0 0.0 0.00 0.00 0.00 99 1018.2
20260903114024 74 0 0.0 0.0 0.00 0.00 0.00 99 1018.1
20260903113524 74 0 0.0 0.0 0.00 0.00 0.00 99 1018.1
20260903113043 74 0 0.0 0.0 0.00 0.00 0.00 99 1018.0
20260903112527 74 0 0.0 0.0 0.00 0.00 0.00 99 1017.9
20260903112027 74 0 0.0 0.0 0.00 0.00 0.00 99 1017.8
20260903111542 74 0 0.0 0.0 0.00 0.00 0.00 99 1017.8
20260903111024 74 0 0.0 0.0 0.00 0.00 0.00 99 1017.8
20260903110526 74 0 0.0 0.0 0.00 0.00 0.00 99 1017.9
20260903110109 74 0 0.0 0.0 0.00 0.00 0.00 99 1017.7
20260903105521 74 0 0.0 0.0 0.00 0.00 0.00 99 1017.6
20260903105024 74 0 0.0 0.0 0.00 0.00 0.00 99 1017.6
20260903104544 74 0 0.0 0.0 0.00 0.00 0.00 99 1017.6
20260903104024 74 0 0.0 0.0 0.00 0.00 0.00 99 1017.6
20260903103529 74 0 0.0 0.0 0.00 0.00 0.00 99 1017.5
20260903103043 74 0 0.0 0.0 0.00 0.00 0.00 99 1017.5
20260903102526 74 0 0.0 0.0 0.00 0.00 0.00 99 1017.4
20260903102023 74 0 0.0 0.0 0.00 0.00 0.00 98 1017.3
20260903101541 74 0 0.0 0.0 0.00 0.00 0.00 98 1017.4
20260903101026 74 0 0.0 0.0 0.00 0.00 0.00 98 1017.4
20260903100524 74 0 0.0 0.0 0.00 0.00 0.00 98 1017.3
20260903100049 74 0 0.0 0.0 0.00 0.00 0.00 98 1017.3
20260903095525 74 0 0.0 0.0 0.00 0.00 0.00 98 1017.2
20260903095023 74 0 0.0 0.0 0.00 0.00 0.00 98 1017.3
20260903094552 74 0 0.0 0.0 0.00 0.00 0.00 98 1017.3
20260903094024 74 0 0.0 0.0 0.00 0.00 0.00 98 1017.3
20260903093526 74 0 0.0 0.0 0.00 0.00 0.00 98 1017.3
20260903093040 75 0 0.0 0.0 0.00 0.00 0.00 98 1017.3
20260903092526 75 0 0.0 0.0 0.00 0.00 0.00 98 1017.4
20260903092026 75 0 0.0 0.0 0.00 0.00 0.00 98 1017.4
20260903091543 75 0 0.0 0.0 0.00 0.00 0.00 98 1017.3
20260903091024 75 0 0.0 0.0 0.00 0.00 0.00 98 1017.3
20260903090521 75 0 0.0 0.0 0.00 0.00 0.00 98 1017.3
20260903090044 75 0 0.0 0.0 0.00 0.00 0.00 98 1017.2
20260903085523 75 0 0.0 0.0 0.00 0.00 0.00 98 1017.3
20260903085023 75 0 0.0 0.0 0.00 0.00 0.00 98 1017.2
20260903084543 75 0 0.0 0.0 0.00 0.00 0.00 98 1017.2
20260903084025 75 0 0.0 0.0 0.00 0.00 0.00 98 1017.2
20260903083524 75 0 0.0 0.0 0.00 0.00 0.00 98 1017.1
20260903083039 75 0 0.0 0.0 0.00 0.00 0.00 98 1017.0
20260903082524 75 0 0.0 0.0 0.00 0.00 0.00 98 1017.1
20260903082024 75 0 0.0 0.0 0.00 0.00 0.00 98 1017.1
20260903081546 75 0 0.0 0.0 0.00 0.00 0.00 98 1017.0
20260903081026 76 0 0.0 0.0 0.00 0.00 0.00 98 1017.0
20260903080524 76 0 0.0 0.0 0.00 0.00 0.00 98 1017.0
20260903080043 76 0 0.0 0.0 0.00 0.00 0.00 98 1017.1
20260903075521 76 0 0.0 0.0 0.00 0.00 0.00 97 1017.1
20260903075023 76 0 0.0 0.0 0.00 0.00 0.00 97 1017.0
20260903074542 76 0 0.0 0.0 0.00 0.00 0.00 97 1017.1
20260903074028 76 0 0.0 0.0 0.00 0.00 0.00 97 1017.0
20260903073524 76 0 0.0 0.0 0.00 0.00 0.00 97 1016.9
20260903073042 76 0 0.0 0.0 0.00 0.00 0.00 97 1017.0
20260903072524 76 0 0.0 0.0 0.00 0.00 0.00 97 1016.8
20260903072027 76 0 0.0 0.0 0.00 0.00 0.00 97 1016.9
20260903071550 76 0 0.0 0.0 0.00 0.00 0.00 97 1016.8
20260903071024 76 0 0.0 0.0 0.00 0.00 0.00 97 1016.7
20260903070521 76 0 0.0 0.0 0.00 0.00 0.00 97 1016.7
20260903070044 76 0 0.0 0.0 0.00 0.00 0.00 97 1016.6
20260903065524 76 0 0.0 0.0 0.00 0.00 0.00 97 1016.7
20260903065024 76 0 0.0 0.0 0.00 0.00 0.00 97 1016.7
20260903064542 76 0 0.0 0.0 0.00 0.00 0.00 97 1016.6
20260903064027 77 0 0.0 0.0 0.00 0.00 0.00 97 1016.6
20260903063528 77 0 0.0 0.0 0.00 0.00 0.00 96 1016.6
20260903063043 77 0 0.0 0.0 0.00 0.00 0.00 96 1016.6
20260903062524 77 0 0.0 0.0 0.00 0.00 0.00 96 1016.6
20260903062027 77 0 0.0 0.0 0.00 0.00 0.00 96 1016.6
20260903061549 77 0 0.0 0.0 0.00 0.00 0.00 96 1016.5
20260903061028 77 0 0.0 0.0 0.00 0.00 0.00 96 1016.6
20260903060524 77 0 0.0 0.0 0.00 0.00 0.00 95 1016.7
20260903060044 77 0 0.0 0.0 0.00 0.00 0.00 95 1016.7
20260903055524 78 0 0.0 0.0 0.00 0.00 0.00 95 1016.7
20260903055024 78 0 0.0 0.0 0.00 0.00 0.00 95 1016.7
20260903054547 78 0 0.0 0.0 0.00 0.00 0.00 95 1016.8
20260903054022 78 0 0.0 0.0 0.00 0.00 0.00 95 1016.8
20260903053524 78 0 0.0 0.0 0.00 0.00 0.00 95 1016.7
20260903053101 78 0 0.0 0.0 0.00 0.00 0.00 95 1016.7
20260903052524 78 0 0.0 0.0 0.00 0.00 0.00 94 1016.7
20260903052024 78 0 0.0 0.0 0.00 0.00 0.00 94 1016.6
20260903051543 78 0 0.0 0.0 0.00 0.00 0.00 94 1016.6
20260903051026 78 0 0.0 0.0 0.00 0.00 0.00 94 1016.7
20260903050527 79 0 0.0 0.0 0.00 0.00 0.00 94 1016.7
20260903050044 79 0 0.0 0.0 0.00 0.00 0.00 94 1016.7
20260903045523 79 0 0.0 0.0 0.00 0.00 0.00 94 1016.7
20260903045025 79 0 0.0 0.0 0.00 0.00 0.00 93 1016.6
20260903044552 79 0 0.0 0.0 0.00 0.00 0.00 93 1016.7
20260903044024 79 0 0.0 0.0 0.00 0.00 0.00 93 1016.6
20260903043523 80 0 0.0 0.0 0.00 0.00 0.00 92 1016.7
20260903043043 80 0 0.0 0.0 0.00 0.00 0.00 92 1016.6
20260903042529 80 0 0.0 0.0 0.00 0.00 0.00 92 1016.6
20260903042025 80 0 0.0 0.0 0.00 0.00 0.00 91 1016.6
20260903041541 80 0 0.0 0.0 0.00 0.00 0.00 91 1016.6
20260903041025 80 0 0.0 0.0 0.00 0.00 0.00 91 1016.6
20260903040523 80 0 0.0 0.0 0.00 0.00 0.00 91 1016.5
20260903040042 80 0 0.0 0.0 0.00 0.00 0.00 91 1016.5
20260903035523 80 0 0.0 0.0 0.00 0.00 0.00 91 1016.4
20260903035025 80 0 0.0 0.0 0.00 0.00 0.00 91 1016.4
20260903034545 80 0 0.0 0.0 0.00 0.00 0.00 91 1016.4
20260903034023 80 0 0.0 0.0 0.00 0.00 0.00 91 1016.3
20260903033521 81 0 0.0 0.0 0.00 0.00 0.00 91 1016.3
20260903033043 81 0 0.0 0.0 0.00 0.00 0.00 91 1016.3
20260903032521 81 0 0.0 0.0 0.00 0.00 0.00 91 1016.3
20260903032020 81 0 0.0 0.0 0.00 0.00 0.00 91 1016.5
20260903031542 81 0 0.0 0.0 0.00 0.00 0.00 91 1016.5
20260903031027 81 0 0.0 0.0 0.00 0.00 0.00 91 1016.5
20260903030526 81 0 0.0 0.0 0.00 0.00 0.00 91 1016.8
20260903030045 81 0 0.0 0.0 0.00 0.00 0.00 91 1017.2
20260903025524 81 0 0.0 0.0 0.00 0.00 0.00 90 1017.3
20260903025023 81 0 0.0 0.0 0.00 0.00 0.00 90 1017.5
20260903024547 81 0 0.0 0.0 0.00 0.00 0.00 91 1017.5
20260903024024 81 0 0.0 0.0 0.00 0.00 0.00 91 1017.6
20260903023528 81 0 0.0 0.0 0.00 0.00 0.00 91 1017.7
20260903023043 81 0 0.0 0.0 0.00 0.00 0.00 91 1017.8
20260903022524 81 0 0.0 0.0 0.00 0.00 0.00 92 1017.8
20260903022024 81 0 0.0 0.0 0.00 0.00 0.00 92 1017.8
20260903021553 81 0 0.0 0.0 0.00 0.00 0.00 92 1017.8
20260903021023 81 0 0.0 0.0 0.00 0.00 0.00 92 1017.8
20260903020528 82 0 0.0 0.0 0.00 0.00 0.00 93 1017.8
20260903020037 82 0 0.0 0.0 0.00 0.00 0.00 93 1017.8
20260903015521 82 0 0.0 0.0 0.00 0.00 0.00 92 1017.6
20260903015023 82 0 0.0 0.0 0.00 0.00 0.00 92 1017.6
20260903014544 82 0 0.0 0.0 0.00 0.00 0.00 91 1017.5
20260903014023 82 0 0.0 0.0 0.00 0.00 0.00 91 1017.4
20260903013525 82 0 0.0 0.0 0.00 0.00 0.00 92 1017.2
20260903013043 82 0 0.0 0.0 0.00 0.00 0.00 92 1017.1
20260903012521 82 0 0.0 0.0 0.00 0.00 0.00 92 1017.1
20260903012024 82 0 0.0 0.0 0.00 0.00 0.00 91 1017.0
20260903011545 83 0 0.0 0.0 0.00 0.00 0.00 90 1016.9
20260903011024 83 0 0.0 0.0 0.00 0.00 0.00 90 1016.7
20260903010521 83 0 0.0 0.0 0.00 0.00 0.00 90 1016.6
20260903010047 83 0 0.0 0.0 0.00 0.00 0.00 90 1016.6
20260903005525 83 0 0.0 0.0 0.00 0.00 0.00 90 1016.5
20260903005026 84 0 0.0 0.0 0.00 0.00 0.00 89 1016.6
20260903004554 84 0 0.0 0.0 0.00 0.00 0.00 89 1016.5
20260903004025 84 0 0.0 0.0 0.00 0.00 0.00 88 1016.4
20260903003523 84 0 0.0 0.0 0.00 0.00 0.00 87 1016.3
20260903003044 84 0 0.0 0.0 0.00 0.00 0.00 86 1016.2
20260903002522 84 0 0.0 0.0 0.00 0.00 0.00 86 1016.1
20260903002025 85 0 0.0 0.0 0.00 0.00 0.00 85 1016.0
20260903001541 85 0 0.0 0.0 0.00 0.00 0.00 85 1016.0
20260903001026 86 0 0.0 0.0 0.00 0.00 0.00 84 1015.9
20260903000525 86 0 0.0 0.0 0.00 0.00 0.00 82 1015.9
20260903000043 86 0 0.0 0.0 0.00 0.00 0.00 82 1015.8
20260902235524 87 0 0.0 0.0 0.00 0.00 0.00 82 1015.8
20260902235023 87 0 0.0 0.0 0.00 0.00 0.00 81 1015.8
20260902234541 87 0 0.0 0.0 0.00 0.00 0.00 80 1015.8
20260902234024 88 0 0.0 0.0 0.00 0.00 0.00 80 1015.7
20260902233525 88 0 0.0 0.0 0.00 0.00 0.00 78 1015.7
20260902233044 89 0 0.0 0.0 0.00 0.00 0.00 76 1015.7
20260902232523 89 0 0.0 0.0 0.00 0.00 0.00 76 1015.7
20260902232021 89 0 0.0 0.0 0.00 0.00 0.00 76 1015.6
20260902231548 89 0 0.0 0.0 0.00 0.00 0.00 75 1015.6
20260902231025 90 0 0.0 0.0 0.00 0.00 0.00 74 1015.7
20260902230524 90 0 0.0 0.0 0.00 0.00 0.00 75 1015.6
20260902230042 91 0 0.0 0.0 0.00 0.00 0.00 75 1015.7
20260902225525 91 0 0.0 0.0 0.00 0.00 0.00 73 1015.7
20260902225023 91 0 0.0 0.0 0.00 0.00 0.00 72 1015.7
20260902224538 91 0 0.0 0.0 0.00 0.00 0.00 71 1015.6
20260902224027 91 0 0.0 0.0 0.00 0.00 0.00 70 1015.5
20260902223524 91 0 0.0 0.0 0.00 0.00 0.00 71 1015.6
20260902223043 91 0 0.0 0.0 0.00 0.00 0.00 71 1015.6
20260902222523 91 0 0.0 0.0 0.00 0.00 0.00 72 1015.6
20260902222024 91 0 0.0 0.0 0.00 0.00 0.00 73 1015.6
20260902221544 91 0 0.0 0.0 0.00 0.00 0.00 72 1015.5
20260902221024 91 0 0.0 0.0 0.00 0.00 0.00 71 1015.5
20260902220524 91 0 0.0 0.0 0.00 0.00 0.00 74 1015.6
20260902220053 90 0 0.0 0.0 0.00 0.00 0.00 74 1015.6
20260902215523 90 0 0.0 0.0 0.00 0.00 0.00 74 1015.5
20260902215024 90 0 0.0 0.0 0.00 0.00 0.00 73 1015.6
20260902214542 91 0 0.0 0.0 0.00 0.00 0.00 73 1015.7
20260902214024 91 0 0.0 0.0 0.00 0.00 0.00 73 1015.7
20260902213523 91 0 0.0 0.0 0.00 0.00 0.00 72 1015.7
20260902213040 92 0 0.0 0.0 0.00 0.00 0.00 72 1015.7
20260902212521 92 0 0.0 0.0 0.00 0.00 0.00 72 1015.7
20260902212024 92 0 0.0 0.0 0.00 0.00 0.00 72 1015.8
20260902211536 93 0 0.0 0.0 0.00 0.00 0.00 70 1015.7
20260902211025 93 0 0.0 0.0 0.00 0.00 0.00 69 1015.7
20260902210523 93 0 0.0 0.0 0.00 0.00 0.00 69 1015.7
20260902210051 94 0 0.0 0.0 0.00 0.00 0.00 66 1015.9
20260902205521 94 0 0.0 0.0 0.00 0.00 0.00 65 1015.9
20260902205021 95 0 0.0 1.0 0.00 0.00 0.00 62 1015.9
20260902204545 96 0 0.0 1.0 0.00 0.00 0.00 62 1015.9
20260902204024 96 0 0.0 1.0 0.00 0.00 0.00 60 1016.0
20260902203524 96 0 0.0 0.0 0.00 0.00 0.00 57 1015.9
20260902203043 95 0 0.0 0.0 0.00 0.00 0.00 67 1016.0
20260902202523 95 0 0.0 0.0 0.00 0.00 0.00 65 1016.1
20260902202023 96 0 0.0 1.0 0.00 0.00 0.00 63 1016.1
20260902201607 96 0 0.0 1.0 0.00 0.00 0.00 59 1016.1